Location: Bettgenhausen
(50.6463°N, 7.5681°E)
Time: 02:18:13
(UTC+00:00)

STARLINK-1011 - Pass Details

Date: 27 February 2020
Orbit: 549 x 550 km, 53.0° (Epoch: 05 April)

Event Time Altitude Azimuth Distance (km) Brightness Sun altitude
Rises 18:31:20 0° 257° (WSW) 2,717 8.7 -14.2°
Reaches altitude 10° 18:33:34 10° 259° (W) 1,825 7.5 -14.5°
Maximum altitude 18:37:43 76° 346° (NNW) 574 3.7 -15.2°
Enters shadow 18:40:00 26° 68° (ENE) 1,113 4.7 -15.5°
